FW3327 Weather Reports


time (UTC)temp
C
wind
direction
speed
KPH
gust
KPH
rain 1hr
cm
rain 24hr
cm
rain mn
cm
humidity
%
barometer
mb
20260507080541 12 5 4.8 9.7 0.00 0.00 0.00 61 1016.0
20260507080039 12 326 4.8 12.9 0.00 0.00 0.00 61 1016.0
20260507075542 12 5 4.8 12.9 0.00 0.00 0.00 61 1016.0
20260507075038 12 9 3.2 9.7 0.00 0.00 0.00 61 1016.0
20260507074539 12 329 4.8 9.7 0.00 0.00 0.00 61 1016.0
20260507074037 12 308 4.8 9.7 0.00 0.00 0.00 61 1016.0
20260507073537 12 343 4.8 9.7 0.00 0.00 0.00 61 1016.0
20260507073049 12 5 3.2 14.5 0.00 0.00 0.00 62 1016.0
20260507072536 12 344 6.4 14.5 0.00 0.00 0.00 62 1016.0
20260507072038 12 315 3.2 8.0 0.00 0.00 0.00 62 1016.0
20260507071536 12 336 3.2 9.7 0.00 0.00 0.00 62 1016.0
20260507071036 12 285 1.6 12.9 0.00 0.00 0.00 62 1016.0
20260507070533 12 333 3.2 12.9 0.00 0.00 0.00 63 1016.0
20260507070038 12 338 1.6 8.0 0.00 0.00 0.00 63 1015.9
20260507065531 12 24 3.2 12.9 0.00 0.00 0.00 63 1015.8
20260507065033 12 320 3.2 14.5 0.00 0.00 0.00 63 1015.8
20260507064537 12 348 6.4 14.5 0.00 0.00 0.00 63 1015.9
20260507064031 12 351 1.6 12.9 0.00 0.00 0.00 63 1015.9
20260507063532 12 16 4.8 16.1 0.00 0.00 0.00 63 1015.9
20260507063033 12 329 6.4 12.9 0.00 0.00 0.00 63 1015.9
20260507062530 12 297 4.8 9.7 0.00 0.00 0.00 63 1016.0
20260507062030 12 316 4.8 12.9 0.00 0.00 0.00 64 1016.0
20260507061532 12 337 4.8 12.9 0.00 0.00 0.00 64 1016.0
20260507061033 12 355 3.2 9.7 0.00 0.00 0.00 64 1016.1
20260507060529 12 328 1.6 8.0 0.00 0.00 0.00 64 1016.1
20260507060037 12 329 3.2 9.7 0.00 0.00 0.00 64 1016.0
20260507055529 12 344 3.2 6.4 0.00 0.00 0.00 64 1016.1
20260507055029 12 17 3.2 8.0 0.00 0.00 0.00 65 1016.1
20260507054537 12 298 3.2 6.4 0.00 0.00 0.00 65 1016.0
20260507054028 12 323 1.6 6.4 0.00 0.00 0.00 64 1016.0
20260507053527 12 360 0.0 8.0 0.00 0.00 0.00 64 1016.0
20260507053027 12 306 4.8 8.0 0.00 0.00 0.00 64 1016.0
20260507052526 12 23 1.6 6.4 0.00 0.00 0.00 64 1016.0
20260507052026 12 355 1.6 8.0 0.00 0.00 0.00 64 1016.0
20260507051525 12 360 0.0 8.0 0.00 0.00 0.00 63 1016.0
20260507051023 12 11 3.2 8.0 0.00 0.00 0.00 63 1015.9
20260507050525 13 31 1.6 8.0 0.00 0.00 0.00 63 1015.9
20260507050033 13 335 6.4 9.7 0.00 0.00 0.00 63 1015.9
20260507045523 13 343 3.2 9.7 0.00 0.00 0.00 63 1015.9
20260507045023 13 351 4.8 9.7 0.00 0.00 0.00 62 1015.8
20260507044533 13 23 3.2 16.1 0.00 0.00 0.00 62 1015.8
20260507044022 13 355 9.7 16.1 0.00 0.00 0.00 62 1015.8
20260507043522 13 9 4.8 16.1 0.00 0.00 0.00 62 1015.9
20260507043022 13 350 1.6 16.1 0.00 0.00 0.00 61 1015.9
20260507042520 13 332 6.4 17.7 0.00 0.00 0.00 61 1015.7
20260507042019 13 294 6.4 20.9 0.00 0.00 0.00 61 1015.7
20260507041549 13 313 6.4 19.3 0.00 0.00 0.00 61 1015.7
20260507041018 13 18 9.7 19.3 0.00 0.00 0.00 61 1015.5
20260507040518 14 326 3.2 14.5 0.00 0.00 0.00 60 1015.6
20260507040017 14 26 6.4 16.1 0.00 0.00 0.00 60 1015.5
20260507035517 14 333 8.0 16.1 0.00 0.00 0.00 60 1015.5
20260507035017 14 360 6.4 16.1 0.00 0.00 0.00 59 1015.4
20260507034518 14 308 8.0 17.7 0.00 0.00 0.00 59 1015.3
20260507034016 15 10 8.0 17.7 0.00 0.00 0.00 59 1015.2
20260507033515 15 317 6.4 16.1 0.00 0.00 0.00 59 1015.2
20260507033016 15 331 4.8 16.1 0.00 0.00 0.00 59 1015.1
20260507032519 15 348 8.0 17.7 0.00 0.00 0.00 58 1015.0
20260507032015 15 340 9.7 17.7 0.00 0.00 0.00 58 1014.9
20260507031523 15 333 6.4 16.1 0.00 0.00 0.00 59 1014.9
20260507031016 16 32 6.4 16.1 0.00 0.00 0.00 59 1014.8
20260507030514 16 338 6.4 16.1 0.00 0.00 0.00 58 1014.8
20260507030014 16 323 8.0 16.1 0.00 0.00 0.00 58 1014.7
20260507025514 16 327 8.0 14.5 0.00 0.00 0.00 60 1014.6
20260507025014 16 42 1.6 8.0 0.00 0.00 0.00 61 1014.6
20260507024516 16 32 3.2 8.0 0.00 0.00 0.00 60 1014.4
20260507024014 16 34 3.2 8.0 0.00 0.00 0.00 61 1014.5
20260507023520 16 52 1.6 8.0 0.00 0.00 0.00 61 1014.3
20260507023013 16 30 1.6 9.7 0.00 0.00 0.00 61 1014.4
20260507022516 17 15 4.8 11.3 0.00 0.00 0.00 60 1014.3
20260507022013 17 34 1.6 9.7 0.00 0.00 0.00 60 1014.2
20260507021512 17 79 4.8 9.7 0.00 0.00 0.00 60 1014.2
20260507021012 17 100 3.2 9.7 0.00 0.00 0.00 60 1014.2
20260507020513 17 36 3.2 9.7 0.00 0.00 0.00 60 1014.2
20260507020012 17 90 4.8 9.7 0.00 0.00 0.00 60 1014.3
20260507015511 17 81 4.8 9.7 0.00 0.00 0.00 59 1014.3
20260507015012 17 88 6.4 11.3 0.00 0.00 0.00 59 1014.3
20260507014516 17 90 3.2 16.1 0.00 0.00 0.00 59 1014.2
20260507014013 17 71 6.4 16.1 0.00 0.00 0.00 57 1014.2
20260507013513 18 95 8.0 16.1 0.00 0.00 0.00 57 1014.2
20260507013019 18 73 6.4 12.9 0.00 0.00 0.00 58 1014.2
20260507012510 18 84 6.4 12.9 0.00 0.00 0.00 57 1014.2
20260507012011 18 44 4.8 9.7 0.00 0.00 0.00 58 1014.3
20260507011517 18 75 3.2 12.9 0.00 0.00 0.00 57 1014.3
20260507011009 18 360 4.8 12.9 0.00 0.00 0.00 58 1014.2
20260507010512 18 24 3.2 9.7 0.00 0.00 0.00 58 1014.2
20260507010010 18 21 4.8 12.9 0.00 0.00 0.00 57 1014.2
20260507005510 19 9 6.4 12.9 0.00 0.00 0.00 58 1014.2
20260507005009 19 5 4.8 9.7 0.00 0.00 0.00 58 1014.1
20260507004522 19 340 3.2 9.7 0.00 0.00 0.00 58 1014.1
20260507004011 19 76 4.8 9.7 0.00 0.00 0.00 59 1014.1
20260507003511 19 24 6.4 11.3 0.00 0.00 0.00 58 1014.1
20260507003008 19 24 4.8 12.9 0.00 0.00 0.00 57 1014.0
20260507002508 19 75 3.2 12.9 0.00 0.00 0.00 58 1014.1
20260507002008 19 35 4.8 12.9 0.00 0.00 0.00 58 1014.0
20260507001507 19 41 4.8 12.9 0.00 0.00 0.00 58 1014.0
20260507001007 19 71 4.8 12.9 0.00 0.00 0.00 58 1013.9
20260507000507 19 58 4.8 14.5 0.00 0.00 0.00 57 1014.0
20260507000009 20 21 4.8 14.5 0.00 0.00 0.00 56 1014.0
20260506235508 20 348 4.8 12.9 0.00 0.00 0.00 57 1014.0
20260506235006 20 58 4.8 12.9 0.00 0.00 0.00 57 1014.0
20260506234507 20 33 8.0 12.9 0.00 0.00 0.00 56 1013.9
20260506234007 20 59 3.2 12.9 0.00 0.00 0.00 57 1013.9
20260506233506 20 48 4.8 12.9 0.00 0.00 0.00 55 1014.0
20260506233008 20 5 3.2 9.7 0.00 0.00 0.00 55 1013.9
20260506232506 20 23 4.8 9.7 0.00 0.00 0.00 54 1013.8
20260506232006 20 355 4.8 11.3 0.00 0.00 0.00 54 1013.9
20260506231517 21 105 4.8 9.7 0.00 0.00 0.00 54 1013.9
20260506231007 21 88 0.0 9.7 0.00 0.00 0.00 52 1014.0
20260506230504 21 91 6.4 9.7 0.00 0.00 0.00 52 1013.9
20260506230005 21 98 3.2 8.0 0.00 0.00 0.00 52 1013.9
20260506225505 21 85 4.8 8.0 0.00 0.00 0.00 51 1014.0
20260506225004 21 141 3.2 6.4 0.00 0.00 0.00 51 1014.0
20260506224503 21 114 1.6 6.4 0.00 0.00 0.00 53 1014.1
20260506224002 21 147 0.0 6.4 0.00 0.00 0.00 52 1014.2
20260506223502 21 115 1.6 6.4 0.00 0.00 0.00 53 1014.2
20260506223004 20 132 0.0 9.7 0.00 0.00 0.00 53 1014.2
20260506222502 20 102 1.6 9.7 0.00 0.00 0.00 54 1014.3
20260506222001 20 92 4.8 11.3 0.00 0.00 0.00 55 1014.3
20260506221502 20 74 3.2 12.9 0.00 0.00 0.00 55 1014.4
20260506221002 20 94 8.0 12.9 0.00 0.00 0.00 56 1014.4
20260506220502 20 76 4.8 12.9 0.00 0.00 0.00 54 1014.3
20260506220002 20 70 1.6 9.7 0.00 0.00 0.00 55 1014.3
20260506215500 20 71 4.8 12.9 0.00 0.00 0.00 54 1014.3
20260506215000 20 84 1.6 17.7 0.00 0.00 0.00 53 1014.3
20260506214601 20 126 4.8 17.7 0.00 0.00 0.00 53 1014.3
20260506214100 21 71 6.4 16.1 0.00 0.00 0.00 55 1014.3
20260506213602 21 103 3.2 12.9 0.00 0.00 0.00 54 1014.3
20260506213139 21 111 3.2 14.5 0.00 0.00 0.00 53 1014.3
20260506212558 21 121 6.4 14.5 0.00 0.00 0.00 52 1014.3
20260506212058 20 128 1.6 11.3 0.00 0.00 0.00 54 1014.4
20260506211611 20 163 4.8 12.9 0.00 0.00 0.00 56 1014.4
20260506211054 20 94 3.2 12.9 0.00 0.00 0.00 56 1014.5
20260506210553 20 101 3.2 11.3 0.00 0.00 0.00 55 1014.6
20260506210056 19 101 6.4 11.3 0.00 0.00 0.00 57 1014.7
20260506205551 19 119 1.6 9.7 0.00 0.00 0.00 57 1014.8
20260506205050 19 114 4.8 9.7 0.00 0.00 0.00 58 1014.8
20260506204556 18 115 1.6 9.7 0.00 0.00 0.00 58 1014.8
20260506204051 18 123 3.2 11.3 0.00 0.00 0.00 59 1014.8
20260506203548 18 117 4.8 11.3 0.00 0.00 0.00 59 1014.7
20260506203049 18 81 4.8 12.9 0.00 0.00 0.00 59 1014.7
20260506202547 18 56 3.2 12.9 0.00 0.00 0.00 60 1014.7
20260506202049 18 80 4.8 9.7 0.00 0.00 0.00 60 1014.7
20260506201557 18 70 4.8 12.9 0.00 0.00 0.00 61 1014.6
20260506201047 18 74 8.0 16.1 0.00 0.00 0.00 60 1014.7
20260506200547 18 107 8.0 16.1 0.00 0.00 0.00 60 1014.6
20260506200045 18 83 6.4 14.5 0.00 0.00 0.00 60 1014.9
20260506195545 18 103 8.0 14.5 0.00 0.00 0.00 60 1014.8
20260506195044 18 118 6.4 12.9 0.00 0.00 0.00 61 1014.9
20260506194556 18 126 3.2 12.9 0.00 0.00 0.00 60 1014.9
20260506194046 18 72 6.4 12.9 0.00 0.00 0.00 61 1015.0
20260506193542 18 109 4.8 16.1 0.00 0.00 0.00 61 1015.0
20260506193041 17 71 4.8 16.1 0.00 0.00 0.00 60 1014.9
20260506192543 17 112 4.8 11.3 0.00 0.00 0.00 61 1015.0
20260506192039 17 180 3.2 11.3 0.00 0.00 0.00 61 1015.1
20260506191545 17 88 6.4 11.3 0.00 0.00 0.00 61 1015.1
20260506191037 17 91 0.0 8.0 0.00 0.00 0.00 62 1015.1
20260506190537 17 76 3.2 8.0 0.00 0.00 0.00 62 1015.1
20260506190036 17 72 1.6 9.7 0.00 0.00 0.00 62 1015.1
20260506185535 17 81 3.2 11.3 0.00 0.00 0.00 62 1015.2
20260506185040 17 80 6.4 11.3 0.00 0.00 0.00 63 1015.1
20260506184533 16 274 1.6 9.7 0.00 0.00 0.00 62 1015.2
20260506184034 16 55 4.8 9.7 0.00 0.00 0.00 63 1015.1
20260506183533 16 98 1.6 6.4 0.00 0.00 0.00 63 1015.1
20260506183041 16 38 3.2 8.0 0.00 0.00 0.00 63 1015.1
20260506182530 16 84 4.8 9.7 0.00 0.00 0.00 64 1015.1
20260506182029 16 128 1.6 9.7 0.00 0.00 0.00 64 1015.2
20260506181528 16 115 6.4 9.7 0.00 0.00 0.00 65 1015.1
20260506181027 16 105 3.2 6.4 0.00 0.00 0.00 65 1014.9
20260506180528 15 118 3.2 6.4 0.00 0.00 0.00 64 1015.0
20260506180027 15 109 1.6 6.4 0.00 0.00 0.00 65 1015.1
20260506175523 15 108 1.6 4.8 0.00 0.00 0.00 65 1015.2
20260506175021 15 109 0.0 4.8 0.00 0.00 0.00 65 1015.2
20260506174521 15 109 1.6 6.4 0.00 0.00 0.00 65 1015.2
20260506174021 15 101 3.2 6.4 0.00 0.00 0.00 65 1015.1
20260506173521 15 157 0.0 6.4 0.00 0.00 0.00 65 1015.1
20260506173023 15 153 3.2 6.4 0.00 0.00 0.00 65 1015.1
20260506172521 15 54 0.0 4.8 0.00 0.00 0.00 65 1015.0
20260506172020 15 34 1.6 4.8 0.00 0.00 0.00 65 1015.0
20260506171526 15 92 0.0 4.8 0.00 0.00 0.00 65 1015.0
20260506171024 15 91 0.0 4.8 0.00 0.00 0.00 65 1015.0
20260506170522 15 107 0.0 4.8 0.00 0.00 0.00 65 1014.9
20260506170019 15 188 0.0 4.8 0.00 0.00 0.00 65 1014.9
20260506165517 15 196 1.6 4.8 0.00 0.00 0.00 65 1015.0
20260506165016 15 198 0.0 4.8 0.00 0.00 0.00 65 1014.9
20260506164516 15 89 1.6 4.8 0.00 0.00 0.00 65 1014.8
20260506164021 15 350 0.0 3.2 0.00 0.00 0.00 65 1014.9
20260506163515 14 313 0.0 6.4 0.00 0.00 0.00 65 1014.9
20260506163018 15 278 1.6 8.0 0.00 0.00 0.00 65 1015.1
20260506162518 15 348 3.2 8.0 0.00 0.00 0.00 65 1015.1
20260506162019 15 24 1.6 4.8 0.00 0.00 0.00 65 1015.0
20260506161515 15 330 0.0 6.4 0.00 0.00 0.00 65 1015.1
20260506161012 15 351 3.2 6.4 0.00 0.00 0.00 65 1015.0
20260506160512 14 272 1.6 4.8 0.00 0.00 0.00 65 1015.0
20260506160011 14 92 0.0 3.2 0.00 0.00 0.00 66 1014.9
20260506155511 14 57 0.0 3.2 0.00 0.00 0.00 66 1014.8
20260506155010 14 57 0.0 3.2 0.00 0.00 0.00 66 1014.6
20260506154510 13 321 0.0 4.8 0.00 0.00 0.00 67 1014.7
20260506154011 13 344 0.0 3.2 0.00 0.00 0.00 67 1014.7
20260506153509 13 138 0.0 4.8 0.00 0.00 0.00 67 1014.5
20260506153010 13 138 3.2 4.8 0.00 0.00 0.00 68 1014.5
20260506152509 13 107 0.0 4.8 0.00 0.00 0.00 68 1014.4
20260506152008 13 82 0.0 3.2 0.00 0.00 0.00 69 1014.5
20260506151507 13 82 0.0 6.4 0.00 0.00 0.00 69 1014.4
20260506151006 13 82 1.6 6.4 0.00 0.00 0.00 68 1014.4
20260506150505 13 16 1.6 4.8 0.00 0.00 0.00 69 1014.7
20260506150005 13 5 0.0 6.4 0.00 0.00 0.00 69 1014.9
20260506145503 13 348 1.6 6.4 0.00 0.00 0.00 69 1015.0
20260506145001 13 311 1.6 8.0 0.00 0.00 0.00 69 1015.0
20260506144501 13 296 4.8 8.0 0.00 0.00 0.00 69 1015.0
20260506144100 13 308 1.6 9.7 0.00 0.00 0.00 69 1015.0
20260506143700 13 309 3.2 9.7 0.00 0.00 0.00 69 1014.9
20260506143104 13 300 4.8 9.7 0.00 0.00 0.00 69 1014.9
20260506142559 13 321 4.8 9.7 0.00 0.00 0.00 70 1014.9
20260506142059 13 300 6.4 9.7 0.00 0.00 0.00 70 1014.7
20260506141555 13 300 3.2 9.7 0.00 0.00 0.00 70 1014.6
20260506141054 13 311 3.2 8.0 0.00 0.00 0.00 70 1014.5
20260506140557 13 319 0.0 4.8 0.00 0.00 0.00 70 1014.4
20260506140053 12 334 0.0 1.6 0.00 0.00 0.00 71 1014.3
20260506135551 12 346 0.0 1.6 0.00 0.00 0.00 70 1014.1
20260506135050 12 312 0.0 0.0 0.00 0.00 0.00 71 1014.0
20260506134550 12 312 0.0 0.0 0.00 0.00 0.00 71 1014.1
20260506134050 12 312 0.0 0.0 0.00 0.00 0.00 71 1014.1
20260506133549 12 312 0.0 0.0 0.00 0.00 0.00 71 1014.1
20260506133051 12 312 0.0 0.0 0.00 0.00 0.00 71 1014.2
20260506132548 12 312 0.0 0.0 0.00 0.00 0.00 71 1014.0
20260506132051 12 312 0.0 0.0 0.00 0.00 0.00 71 1014.1
20260506131546 12 312 0.0 0.0 0.00 0.00 0.00 71 1014.0
20260506131045 12 312 0.0 0.0 0.00 0.00 0.00 71 1014.0
20260506130545 12 312 0.0 0.0 0.00 0.00 0.00 70 1014.0
20260506130046 12 312 0.0 0.0 0.00 0.00 0.00 70 1013.9
20260506125545 12 312 0.0 0.0 0.00 0.00 0.00 70 1013.6
20260506125042 12 312 0.0 0.0 0.00 0.00 0.00 70 1013.6
20260506124541 12 312 0.0 0.0 0.00 0.00 0.00 70 1013.5
20260506124042 13 314 0.0 0.0 0.00 0.00 0.00 70 1013.5
20260506123540 13 314 0.0 3.2 0.00 0.00 0.00 70 1013.5
20260506123040 13 314 0.0 3.2 0.00 0.00 0.00 69 1013.5
20260506122541 13 314 0.0 1.6 0.00 0.00 0.00 69 1013.4
20260506122041 13 314 0.0 1.6 0.00 0.00 0.00 69 1013.4
20260506121538 13 314 0.0 3.2 0.00 0.00 0.00 69 1013.4
20260506121041 13 314 0.0 1.6 0.00 0.00 0.00 69 1013.4
20260506120538 13 311 0.0 3.2 0.00 0.00 0.00 69 1013.4
20260506120042 13 311 0.0 3.2 0.00 0.00 0.00 70 1013.5
20260506115537 13 311 0.0 1.6 0.00 0.00 0.00 70 1013.4
20260506115036 13 311 0.0 4.8 0.00 0.00 0.00 70 1013.5
20260506114535 13 311 1.6 6.4 0.00 0.00 0.00 70 1013.4
20260506114035 13 312 3.2 8.0 0.00 0.00 0.00 70 1013.3
20260506113535 13 337 3.2 8.0 0.00 0.00 0.00 70 1013.3
20260506113035 13 324 0.0 3.2 0.00 0.00 0.00 70 1013.4
20260506112534 13 335 0.0 3.2 0.00 0.00 0.00 70 1013.2
20260506112033 13 355 0.0 0.0 0.00 0.00 0.00 70 1013.1
20260506111533 13 318 0.0 0.0 0.00 0.00 0.00 70 1013.2
20260506111033 13 318 0.0 0.0 0.00 0.00 0.00 70 1013.2
20260506110535 13 318 0.0 0.0 0.00 0.00 0.00 70 1013.1
20260506110033 13 318 0.0 0.0 0.00 0.00 0.00 71 1013.1
20260506105532 13 318 0.0 0.0 0.00 0.00 0.00 71 1013.0
20260506105032 13 318 0.0 0.0 0.00 0.00 0.00 71 1012.9
20260506104531 13 318 0.0 0.0 0.00 0.00 0.00 71 1012.8
20260506104029 13 298 0.0 0.0 0.00 0.00 0.00 71 1012.7
20260506103532 13 294 0.0 0.0 0.00 0.00 0.00 71 1012.7
20260506103030 13 294 0.0 0.0 0.00 0.00 0.00 71 1012.6
20260506102530 13 294 0.0 0.0 0.00 0.00 0.00 70 1012.5
20260506102029 13 294 0.0 0.0 0.00 0.00 0.00 70 1012.5
20260506101527 13 294 0.0 0.0 0.00 0.00 0.00 70 1012.4
20260506101029 13 294 0.0 0.0 0.00 0.00 0.00 70 1012.4
20260506100529 13 294 0.0 0.0 0.00 0.00 0.00 70 1012.3
20260506100027 13 294 0.0 0.0 0.00 0.00 0.00 70 1012.1
20260506095525 13 294 0.0 0.0 0.00 0.00 0.00 70 1012.2
20260506095024 13 294 0.0 0.0 0.00 0.00 0.00 70 1012.1
20260506094524 13 294 0.0 0.0 0.00 0.00 0.00 70 1012.2
20260506094023 13 294 0.0 0.0 0.00 0.00 0.00 70 1012.1
20260506093523 13 294 0.0 0.0 0.00 0.00 0.00 70 1012.0
20260506093023 13 294 0.0 0.0 0.00 0.00 0.00 69 1012.1
20260506092522 13 294 0.0 0.0 0.00 0.00 0.00 69 1012.0
20260506092022 13 294 0.0 0.0 0.00 0.00 0.00 69 1012.0
20260506091521 13 294 0.0 0.0 0.00 0.00 0.00 69 1012.0
20260506091021 13 294 0.0 0.0 0.00 0.00 0.00 69 1012.0
20260506090520 13 285 0.0 0.0 0.00 0.00 0.00 69 1012.0
20260506090120 13 304 0.0 0.0 0.00 0.00 0.00 69 1011.9
20260506085521 13 290 0.0 0.0 0.00 0.00 0.00 70 1012.0
20260506085019 13 294 0.0 0.0 0.00 0.00 0.00 70 1011.9
20260506084523 13 355 0.0 0.0 0.00 0.00 0.00 70 1012.0
20260506084019 14 355 0.0 0.0 0.00 0.00 0.00 70 1012.0
20260506083519 14 355 0.0 0.0 0.00 0.00 0.00 70 1012.0
20260506083019 14 355 0.0 0.0 0.00 0.00 0.00 70 1011.9
20260506082517 14 355 0.0 0.0 0.00 0.00 0.00 71 1011.9
20260506082017 14 355 0.0 3.2 0.00 0.00 0.00 71 1011.9
20260506081517 14 355 0.0 4.8 0.00 0.00 0.00 71 1011.9
20260506081015 14 355 1.6 4.8 0.00 0.00 0.00 72 1011.8